Vorticity
10 10 9 8 8 7 7 6 6 6 6 6 5 5 5 6 6 6 6 6 7 7 7 7 7 7 7 7 6 6 6 6 5 5 6 6 7 8 9 11 12 14 15 15 15 15 14 13 12 11 11 10 10 9 8 8 8 8 8 8 8 8 8 10 11 12 12 10 7 4 1 3 6 9 9 8 8 9 9 8 7 6 6 6 5 4
7 7 6 6 5 5 5 5 5 5 5 6 6 6 6 6 7 7 7 8 8 8 8 8 8 8 8 8 8 8 8 7 6 6 5 5 5 5 6 7 8 9 11 13 14 15 15 14 14 13 13 12 12 11 9 8 8 8 8 9 9 9 9 9 10 11 12 12 9 5 1 1 4 7 9 8 7 8 8 7 7 6 6 6 5 4
5 5 5 4 4 4 4 4 4 5 5 5 5 6 6 6 6 6 6 6 7 7 7 8 8 8 9 10 10 10 10 9 9 8 8 7 6 6 5 5 5 6 7 8 10 11 13 14 14 14 14 14 14 13 12 10 9 8 8 8 9 9 9 9 10 11 12 12 11 9 5 3 3 6 8 8 7 7 7 7 7 7 6 6 5 4
4 5 5 4 4 4 4 4 4 4 4 4 5 5 5 5 5 5 5 5 5 5 6 6 6 7 7 8 9 10 10 10 10 10 10 9 9 8 7 6 5 5 5 5 6 7 8 10 11 13 13 14 14 14 14 12 11 10 10 9 9 9 9 9 10 10 11 12 13 12 10 7 6 7 8 8 7 6 6 6 7 7 6 5 5 4
4 5 5 5 5 4 4 4 4 4 3 3 4 4 4 5 5 4 4 4 4 4 4 5 5 5 5 6 6 7 8 8 9 9 10 10 10 10 10 9 8 7 6 5 5 5 5 6 7 9 10 11 12 13 14 13 13 12 12 11 11 10 10 10 10 10 11 12 13 14 13 11 10 9 8 8 7 6 6 6 6 6 6 5 5 4
4 5 5 5 5 5 5 4 4 4 4 3 3 3 3 4 4 4 4 4 4 4 4 4 4 4 4 4 4 5 5 6 6 7 8 9 10 10 11 11 10 9 8 7 6 5 5 4 5 5 7 8 9 10 11 12 13 13 13 12 12 12 11 11 11 11 11 12 13 14 15 14 12 11 9 8 7 6 6 6 6 6 6 5 5 4
5 5 5 5 5 5 5 5 5 5 4 4 4 3 3 3 4 4 4 4 4 4 4 4 4 5 5 5 4 4 4 4 5 5 6 6 7 8 9 10 11 11 10 10 9 8 6 6 5 4 4 5 6 7 8 10 10 11 12 12 12 12 13 13 12 12 12 13 14 14 15 15 14 12 10 9 8 7 6 6 5 5 6 6 5 5
5 5 5 5 5 5 5 5 5 5 5 5 5 4 4 3 3 4 4 4 5 4 4 4 4 4 5 5 5 4 4 4 4 4 4 5 5 6 7 8 9 10 11 11 11 10 9 8 7 6 5 5 5 5 6 7 8 9 10 11 11 12 12 13 13 13 13 14 14 14 15 15 14 13 11 9 8 7 6 6 5 5 5 5 5 5
6 6 5 5 5 6 6 5 5 5 5 5 5 5 4 4 3 3 3 4 4 4 4 4 4 4 4 4 4 4 4 4 4 4 4 4 4 5 5 6 7 8 9 10 11 11 11 10 9 8 7 6 5 5 4 5 6 7 8 9 10 10 11 12 13 14 14 14 14 14 14 14 14 13 11 10 8 7 6 6 5 5 5 5 5 5
6 6 6 6 5 5 5 5 5 4 4 4 4 4 4 3 3 3 2 3 3 3 4 4 4 4 4 4 4 4 4 4 4 4 4 4 4 4 4 5 5 6 7 8 9 10 11 11 11 10 9 8 7 6 5 5 5 5 6 7 8 9 10 11 12 13 13 13 13 13 13 13 13 12 11 10 8 7 6 6 5 5 5 5 5 5
5 5 5 5 5 4 4 4 4 4 3 4 4 3 3 3 3 3 2 2 2 2 3 4 4 4 4 4 4 4 4 4 4 4 4 4 4 4 4 4 4 4 5 6 7 8 9 10 11 11 11 10 9 8 7 5 5 4 5 5 6 7 8 9 10 11 12 12 12 12 12 12 11 11 10 9 8 7 6 6 6 6 6 6 6 6
4 4 4 4 4 4 4 4 4 4 4 4 4 4 4 4 3 3 3 3 2 2 2 3 4 4 4 4 4 4 4 4 4 4 4 4 4 4 4 4 4 4 4 4 5 6 7 8 9 10 11 12 11 10 9 7 6 5 4 4 5 5 6 7 8 9 10 10 10 10 10 10 10 10 9 9 8 7 6 6 6 6 6 6 6 6
3 3 4 4 4 4 4 4 5 5 5 5 5 5 5 5 5 4 5 5 4 3 3 3 4 4 5 5 5 4 4 4 4 4 4 4 4 4 5 5 4 4 4 4 4 5 5 6 7 9 10 11 11 11 11 9 8 7 5 5 4 4 5 5 6 7 8 8 9 9 9 8 8 8 8 8 7 7 6 6 6 6 6 6 6 7
4 4 4 4 4 4 4 4 5 5 5 5 5 5 6 6 5 5 6 6 5 5 4 4 4 4 5 5 6 6 5 5 5 5 5 5 5 4 5 5 5 5 4 4 4 4 4 5 6 7 8 9 10 11 11 11 10 9 7 6 5 4 4 4 4 5 6 7 7 7 7 7 7 7 7 7 6 6 6 6 6 6 6 7 7 7
4 4 4 4 4 4 5 5 5 5 5 5 5 5 6 6 5 5 5 6 5 5 5 4 4 4 4 4 5 6 6 6 5 5 5 5 5 5 5 5 5 5 5 5 5 4 4 4 5 5 6 7 9 10 11 11 11 10 9 8 6 5 4 3 3 4 4 5 5 6 6 5 5 5 5 6 6 6 6 6 6 6 7 7 7 7
5 5 5 6 6 5 5 5 5 5 5 5 5 5 5 5 5 5 4 5 5 4 4 4 4 4 3 3 4 5 5 5 5 5 5 5 5 5 5 5 5 5 5 5 5 5 5 5 5 5 5 6 7 8 9 10 11 11 10 9 8 7 6 4 3 3 4 4 4 4 4 4 4 4 4 5 5 5 5 6 6 6 7 7 7 8
6 6 6 6 6 6 5 5 4 4 5 5 4 4 4 4 4 4 4 4 4 4 4 4 3 3 3 3 3 4 4 5 5 5 5 5 5 4 4 5 5 5 5 5 5 5 5 5 5 5 5 5 5 6 7 9 10 10 11 10 9 8 7 6 5 4 4 3 4 4 4 4 4 4 4 4 5 5 5 6 6 7 7 7 8 8
6 5 5 5 5 4 4 4 4 4 3 3 3 3 3 3 3 3 3 3 3 3 3 3 3 3 2 2 2 2 3 4 4 4 5 5 4 4 4 5 4 4 4 5 5 5 5 5 5 5 5 5 5 5 6 7 8 9 10 10 10 9 9 8 6 5 4 4 4 4 4 4 4 4 4 4 5 5 6 6 6 7 7 8 8 8
4 4 4 4 4 3 3 3 2 2 2 2 2 2 2 2 2 2 2 2 2 2 2 3 3 3 2 2 2 1 1 3 3 3 4 4 4 4 4 4 4 4 5 5 5 5 5 6 6 6 5 5 5 5 5 6 7 8 9 10 10 10 10 9 8 7 6 5 4 4 4 4 4 5 5 5 5 6 6 6 7 7 8 8 8 8
3 2 2 2 3 3 2 2 2 2 2 2 2 2 2 2 2 2 2 2 2 2 2 2 2 2 2 2 2 2 1 2 2 2 3 3 3 3 3 4 4 4 4 5 5 5 5 5 5 6 6 5 5 5 5 6 6 7 8 9 9 9 10 10 9 8 7 6 6 5 5 5 5 6 6 6 6 6 7 7 7 8 8 8 8 9
2 2 1 1 2 2 2 2 2 2 2 2 2 2 2 3 3 3 3 3 3 3 3 3 3 3 3 3 3 3 2 3 3 2 2 3 4 4 4 4 4 4 5 5 5 5 5 5 5 5 5 5 6 6 5 6 6 7 7 8 8 9 9 10 10 9 8 8 7 6 6 6 6 6 6 7 7 7 7 8 8 8 8 8 9 9
3 3 3 2 1 2 2 3 3 2 2 3 3 4 4 5 5 6 6 6 6 6 6 6 6 6 6 6 6 5 5 5 5 4 3 5 6 6 6 6 6 6 6 5 5 5 6 6 5 5 5 5 6 6 6 6 6 6 7 7 8 8 9 10 10 10 9 9 8 7 7 7 7 7 7 8 8 8 8 8 8 8 8 9 9 9
4 4 4 4 3 4 4 4 5 5 5 6 7 7 8 8 9 9 10 10 10 10 10 10 10 10 10 10 10 10 10 10 8 7 6 7 6 7 9 9 9 8 8 6 6 6 7 7 6 6 5 5 6 6 6 6 6 6 6 7 8 8 9 9 10 10 9 9 9 8 8 8 8 8 8 8 9 9 9 9 9 9 9 9 9 9
6 6 7 7 7 8 8 9 10 10 11 12 13 13 14 14 14 14 14 14 14 14 14 14 14 15 16 15 15 16 16 15 14 13 13 12 10 9 11 11 11 10 9 9 8 8 8 8 8 7 6 6 6 6 6 6 6 6 6 6 7 8 8 9 9 9 9 9 9 9 8 8 8 9 9 9 9 9 9 9 9 9 9 9 9 9
9 9 10 11 12 13 15 16 17 18 19 19 20 20 20 20 20 19 18 18 18 18 17 18 19 20 18 19 20 21 20 21 20 20 19 18 17 16 15 13 12 11 10 11 12 12 11 11 10 9 8 7 6 6 6 6 5 6 6 6 7 7 8 8 9 9 9 9 8 8 8 8 8 8 9 9 9 10 10 10 10 10 10 10 10 10
12 14 15 16 18 20 22 23 24 24 25 25 25 25 25 24 22 22 22 23 23 22 22 24 24 24 22 24 24 24 23 26 26 26 23 23 22 21 19 17 15 13 13 15 17 17 16 13 12 11 10 9 8 7 6 6 6 6 5 6 6 6 7 8 8 9 9 9 8 8 10 9 9 8 9 9 9 10 10 10 10 10 10 10 10 10
17 19 20 22 23 25 26 26 27 27 28 29 29 28 28 25 24 25 27 27 28 28 28 27 26 27 27 29 29 27 26 29 29 28 27 27 27 26 23 21 19 17 16 19 20 20 18 16 14 13 12 10 9 8 8 7 6 6 6 6 6 6 6 7 8 8 9 9 9 8 9 9 9 9 9 9 9 10 10 10 10 10 10 10 10 10
21 22 23 25 26 27 28 28 28 28 28 29 30 30 29 28 28 28 29 29 32 34 33 30 30 30 31 32 30 29 30 32 31 29 28 30 31 29 26 25 24 23 20 21 21 21 20 18 16 14 14 12 11 10 9 8 7 7 6 6 6 6 6 7 7 8 9 9 9 8 7 9 9 9 9 10 10 10 10 10 10 10 10 10 10 10
23 24 26 27 28 28 28 28 28 28 29 29 30 30 30 30 30 30 28 29 32 33 31 32 33 34 33 33 32 32 35 34 32 30 30 31 32 31 28 29 29 27 25 24 21 20 19 19 18 16 15 13 12 12 11 10 9 8 7 7 6 6 6 6 7 8 9 9 9 9 8 8 9 9 10 10 10 10 10 10 10 10 10 10 10 10
25 26 27 29 29 29 28 28 28 29 30 30 29 29 29 30 30 29 27 29 30 29 27 29 31 31 30 30 31 32 34 33 32 32 30 31 31 30 30 31 31 29 28 27 24 20 16 18 18 18 16 14 13 13 12 11 10 9 9 8 8 7 7 6 7 8 9 9 9 10 9 9 9 9 10 10 10 10 10 10 10 10 10 10 10 10
25 26 27 28 28 28 27 27 28 28 29 28 28 27 26 26 26 26 26 26 26 26 25 25 26 26 25 25 26 27 28 29 30 31 30 30 30 29 30 31 31 30 30 29 26 23 19 18 19 19 18 16 14 13 13 12 11 10 9 9 9 8 8 7 8 8 9 9 10 10 10 10 9 9 9 10 10 10 10 10 10 10 10 10 10 10
26 26 26 26 26 26 26 26 26 26 26 25 25 25 25 25 25 26 26 27 26 26 26 26 25 25 24 24 24 24 24 25 26 28 28 28 28 29 30 30 31 31 31 30 28 26 23 21 20 20 20 18 16 15 14 13 12 11 10 10 9 9 8 8 8 9 9 10 10 11 10 10 9 9 9 10 10 10 10 10 10 10 10 10 10 10
28 28 27 27 27 26 26 26 25 25 25 25 26 27 28 29 30 31 32 32 32 32 31 30 29 28 27 27 26 25 24 24 25 25 25 26 26 26 27 28 30 31 31 30 29 27 23 22 22 22 22 21 19 17 16 14 12 11 10 10 10 10 9 9 9 10 10 10 10 11 11 10 9 9 9 10 10 10 10 10 9 10 10 10 10 10
29 29 28 28 27 27 27 27 28 29 30 31 33 34 35 35 36 36 37 37 37 37 36 35 34 32 31 30 30 29 28 27 26 25 25 25 25 25 25 26 27 28 28 29 28 27 24 23 23 23 23 22 21 20 18 16 14 12 10 10 10 10 10 10 10 10 10 10 10 10 11 9 8 8 8 9 10 10 10 9 9 10 10 10 10 9
28 28 27 28 29 29 30 32 34 35 36 37 37 37 36 36 36 35 36 36 36 37 37 38 37 36 35 34 33 32 32 31 30 29 27 26 25 24 23 24 24 25 26 26 26 26 25 25 25 25 24 23 21 20 19 17 16 14 12 11 10 10 10 10 10 11 11 10 10 10 9 8 7 7 8 9 10 10 10 9 10 10 10 10 10 9
26 27 29 31 32 34 35 36 37 37 37 36 34 33 32 31 31 31 31 31 31 32 33 34 36 37 37 37 36 36 35 34 33 32 30 28 26 24 21 21 22 23 22 24 24 24 24 27 30 30 28 24 21 20 19 18 17 16 15 12 11 10 10 10 11 11 11 11 10 10 9 7 7 7 9 10 10 10 10 10 10 10 10 10 10 10
28 31 34 36 37 38 38 36 35 32 30 28 26 25 24 24 24 24 25 25 26 27 28 29 30 32 34 35 36 37 37 36 36 35 33 29 28 27 25 22 22 24 25 20 19 20 22 26 30 32 31 26 22 20 19 19 18 17 16 14 12 11 11 11 11 11 12 12 11 10 9 8 8 8 10 11 11 11 11 10 10 10 10 10 9 9
34 37 39 40 38 36 33 30 26 23 20 19 17 17 17 17 18 19 20 21 22 23 24 25 26 28 29 31 33 34 35 36 36 36 37 33 28 25 27 26 25 26 28 25 20 18 20 22 24 26 28 27 24 21 20 20 19 18 17 15 13 12 11 11 11 12 12 12 12 10 7 12 12 10 10 11 10 10 10 10 11 10 10 10 9 9
39 40 40 37 32 27 22 19 16 13 12 11 11 11 11 12 13 15 17 19 21 22 23 24 25 26 27 28 30 31 32 33 34 35 37 40 33 26 26 25 24 24 25 24 20 17 18 21 20 19 21 26 26 23 21 21 21 20 19 17 15 14 12 12 12 12 12 12 12 10 5 8 10 11 11 10 10 10 10 10 10 10 9 9 9 10
40 37 33 26 20 15 12 10 8 7 6 6 6 7 7 8 10 12 14 17 20 21 23 23 24 25 26 27 28 30 31 31 32 33 34 40 38 32 28 25 23 22 23 23 21 19 17 19 20 21 21 24 25 24 23 23 23 23 22 19 17 15 13 12 12 13 13 13 12 11 9 10 10 10 10 10 10 10 10 11 10 10 9 9 9 9
32 26 19 14 9 6 5 4 3 3 4 4 5 6 6 7 8 10 12 15 18 20 22 23 24 25 26 27 28 30 30 31 31 31 32 35 36 34 32 31 29 27 25 23 21 19 16 16 16 17 19 21 23 24 24 25 25 25 23 20 17 15 14 13 12 13 14 14 13 12 11 10 10 10 10 10 11 11 11 10 9 8 8 9 9 9
19 13 8 5 2 1 1 2 3 4 5 6 7 7 7 7 7 9 10 14 16 19 21 22 23 24 24 26 28 30 31 31 31 31 32 32 33 33 31 30 29 29 27 25 23 20 16 14 13 13 16 19 22 24 25 27 28 27 25 22 20 18 16 15 14 13 14 14 14 14 12 11 11 10 9 10 10 11 11 11 10 9 8 9 9 10
9 5 2 1 1 1 3 5 6 8 9 10 10 9 8 8 8 9 11 14 17 20 22 24 24 24 24 25 27 29 31 31 31 30 29 31 31 31 31 31 30 28 27 26 25 23 20 17 15 16 18 21 23 26 28 31 31 30 27 24 21 18 16 15 14 13 13 14 15 15 15 13 11 10 9 9 10 10 11 11 11 10 9 9 9 9
2 0 -0 1 3 6 8 10 12 13 13 12 10 9 9 8 9 10 12 15 19 22 24 25 25 24 24 25 26 28 30 31 32 32 30 30 31 32 34 33 31 29 27 26 26 26 25 23 22 23 24 26 28 29 31 33 34 34 31 28 23 19 15 14 14 13 14 14 14 14 14 13 12 11 10 9 10 10 11 10 9 8 8 9 10 10
-0 1 3 6 9 11 14 15 15 15 14 12 11 10 10 10 10 12 14 17 21 25 27 27 25 24 24 25 27 29 30 31 31 31 30 31 31 32 34 33 33 32 29 27 26 25 26 26 27 29 31 32 32 32 32 33 35 35 34 31 27 23 19 17 16 15 14 15 14 14 13 13 12 12 11 11 10 11 11 10 10 9 10 11 10 10
2 5 8 11 14 15 16 16 16 15 14 13 12 12 12 12 13 16 18 22 25 28 30 28 27 25 24 25 26 28 30 30 29 29 30 31 31 30 32 31 31 32 32 30 29 28 26 26 26 28 31 33 34 33 32 32 32 32 32 31 29 26 23 19 17 15 15 15 15 14 13 13 13 12 12 12 11 11 10 10 9 9 10 10 10 9
8 11 14 15 16 17 18 17 16 15 14 13 13 13 13 15 18 21 24 27 29 30 30 29 28 26 25 25 26 27 29 29 28 28 28 30 31 30 29 29 30 32 34 34 34 33 30 26 23 22 22 26 30 33 34 31 30 29 28 28 28 26 24 20 18 16 15 15 15 14 14 14 13 13 12 11 11 11 11 10 9 9 10 10 10 9
14 16 18 19 19 20 19 18 17 15 13 13 14 16 19 22 24 27 29 31 31 31 30 28 27 25 24 25 26 28 29 29 28 27 27 28 30 30 31 31 32 35 39 42 40 35 27 22 18 16 15 18 24 30 33 30 28 26 25 25 25 25 23 21 19 17 16 15 15 15 14 13 12 12 11 11 11 11 11 10 10 10 11 10 9 8
20 21 22 22 22 20 19 16 15 14 15 18 21 25 28 31 32 33 34 33 32 31 29 27 25 24 23 24 26 28 30 29 28 27 27 28 29 30 32 35 39 43 46 44 36 26 17 15 14 15 15 17 20 24 27 27 26 24 23 23 23 22 21 20 19 17 16 16 16 15 14 12 12 11 11 11 12 12 11 10 10 11 12 10 9 8
24 24 23 22 20 18 16 15 16 19 23 28 32 35 38 40 41 40 38 35 33 31 29 27 26 25 24 24 26 28 30 28 27 27 27 28 28 31 34 40 45 48 44 31 20 13 12 15 16 18 18 19 19 20 22 24 25 25 25 23 21 20 19 19 18 17 16 16 16 15 13 13 12 12 12 12 12 12 11 11 11 12 12 10 8 7
23 22 21 19 17 16 16 19 23 28 33 36 40 42 44 46 46 45 42 39 36 33 31 29 27 26 25 26 27 29 30 28 27 27 27 28 29 32 38 46 48 43 28 14 10 11 16 18 18 17 16 15 15 16 20 24 26 28 28 25 22 19 18 18 17 17 16 16 16 16 15 14 13 13 13 13 12 11 11 12 12 13 12 9 6 6
Height
5646 5646 5646 5646 5645 5645 5644 5643 5643 5642 5641 5641 5640 5639 5639 5639 5640 5640 5640 5640 5641 5641 5641 5641 5641 5641 5641 5641 5640 5640 5640 5640 5640 5640 5640 5640 5640 5640 5641 5641 5641 5641 5641 5641 5641 5641 5641 5641 5641 5641 5642 5642 5642 5642 5642 5642 5642 5642 5643 5643 5644 5644 5644 5644 5645 5645 5645 5645 5646 5646 5646 5646 5646 5646 5646 5647 5647 5648 5648 5648 5648 5649 5649 5649 5649 5650
5642 5642 5641 5641 5641 5640 5639 5639 5638 5637 5636 5636 5635 5634 5634 5634 5634 5635 5635 5635 5635 5636 5636 5636 5636 5637 5637 5636 5636 5636 5636 5636 5636 5636 5636 5636 5636 5636 5636 5637 5637 5637 5637 5637 5637 5637 5637 5637 5637 5637 5638 5638 5638 5638 5638 5638 5638 5638 5639 5639 5640 5640 5641 5641 5641 5641 5642 5642 5642 5643 5643 5643 5643 5643 5643 5643 5644 5644 5645 5645 5646 5646 5646 5647 5647 5647
5638 5637 5637 5637 5636 5636 5635 5635 5634 5633 5632 5631 5630 5630 5629 5629 5629 5629 5630 5630 5630 5630 5630 5631 5631 5631 5632 5632 5632 5632 5631 5631 5631 5631 5632 5632 5632 5632 5632 5632 5632 5633 5633 5633 5633 5633 5633 5633 5633 5633 5633 5633 5634 5634 5634 5634 5635 5635 5635 5635 5636 5636 5637 5637 5638 5638 5638 5638 5639 5639 5640 5640 5640 5640 5640 5640 5641 5642 5642 5643 5643 5643 5644 5644 5644 5644
5633 5632 5632 5632 5632 5631 5631 5630 5630 5628 5628 5627 5626 5625 5624 5624 5624 5624 5624 5624 5624 5624 5625 5625 5626 5626 5626 5627 5627 5627 5627 5627 5627 5627 5627 5627 5627 5628 5628 5628 5628 5628 5628 5628 5628 5629 5629 5629 5629 5629 5629 5629 5630 5630 5630 5630 5631 5631 5631 5631 5632 5632 5633 5633 5634 5634 5634 5635 5635 5636 5636 5637 5637 5637 5637 5637 5638 5638 5639 5640 5640 5641 5641 5641 5642 5642
5629 5628 5627 5627 5627 5627 5626 5626 5625 5624 5623 5623 5622 5621 5620 5619 5619 5619 5619 5619 5619 5619 5619 5620 5620 5621 5621 5621 5622 5622 5622 5622 5622 5622 5622 5622 5623 5623 5623 5623 5623 5623 5624 5624 5624 5624 5624 5625 5625 5625 5625 5625 5626 5626 5626 5626 5627 5627 5627 5627 5628 5628 5629 5629 5630 5630 5631 5631 5632 5632 5633 5633 5633 5633 5633 5634 5634 5635 5636 5637 5638 5638 5638 5638 5639 5639
5625 5623 5623 5622 5622 5622 5621 5621 5620 5619 5619 5618 5618 5617 5616 5615 5615 5614 5614 5614 5614 5614 5615 5615 5615 5615 5616 5616 5616 5617 5616 5616 5616 5617 5617 5617 5618 5618 5618 5618 5619 5619 5619 5619 5620 5620 5620 5620 5621 5621 5621 5621 5622 5622 5622 5622 5622 5623 5623 5623 5623 5624 5624 5625 5626 5626 5627 5627 5628 5628 5629 5629 5630 5630 5630 5631 5631 5632 5633 5634 5635 5635 5635 5636 5636 5636
5620 5619 5618 5617 5617 5617 5616 5616 5615 5614 5614 5613 5613 5613 5612 5611 5610 5610 5609 5609 5609 5609 5609 5610 5610 5610 5610 5610 5611 5611 5611 5611 5611 5611 5612 5612 5613 5613 5613 5614 5614 5614 5614 5615 5615 5615 5616 5616 5616 5617 5617 5617 5617 5618 5618 5618 5618 5618 5619 5619 5619 5620 5620 5621 5622 5622 5623 5623 5624 5625 5625 5626 5626 5626 5627 5627 5628 5629 5630 5631 5631 5632 5632 5633 5633 5633
5614 5613 5613 5612 5611 5611 5611 5611 5610 5609 5608 5608 5608 5608 5608 5607 5606 5605 5604 5604 5604 5604 5604 5604 5605 5605 5605 5605 5605 5605 5606 5606 5606 5606 5606 5607 5607 5608 5608 5608 5609 5609 5610 5610 5610 5611 5611 5611 5612 5612 5613 5613 5613 5613 5613 5614 5614 5614 5615 5615 5615 5616 5616 5617 5618 5618 5619 5619 5620 5621 5621 5622 5622 5623 5623 5624 5625 5626 5627 5628 5628 5629 5629 5630 5630 5631
5608 5608 5607 5607 5606 5605 5605 5605 5605 5604 5603 5602 5602 5602 5602 5602 5601 5601 5600 5599 5599 5599 5599 5599 5599 5599 5600 5599 5599 5599 5600 5601 5601 5601 5601 5601 5602 5602 5603 5603 5604 5604 5605 5605 5606 5606 5606 5607 5607 5608 5608 5608 5609 5609 5609 5610 5610 5610 5611 5611 5611 5612 5612 5613 5613 5614 5615 5616 5616 5617 5618 5618 5619 5619 5620 5621 5622 5623 5623 5624 5625 5625 5626 5627 5627 5628
5602 5602 5601 5601 5600 5600 5599 5599 5599 5599 5597 5596 5596 5596 5596 5596 5595 5595 5595 5595 5595 5594 5593 5593 5593 5594 5594 5594 5594 5594 5594 5595 5595 5596 5596 5596 5596 5597 5597 5598 5598 5599 5599 5600 5600 5601 5602 5602 5603 5603 5603 5604 5604 5605 5605 5605 5606 5606 5607 5607 5607 5608 5608 5609 5609 5610 5611 5612 5613 5613 5614 5614 5615 5616 5616 5617 5618 5619 5620 5621 5621 5622 5623 5623 5624 5625
5595 5595 5595 5594 5594 5594 5593 5593 5593 5592 5591 5590 5589 5589 5590 5590 5589 5588 5588 5589 5590 5589 5588 5587 5587 5588 5588 5588 5588 5588 5588 5589 5589 5590 5590 5590 5591 5591 5591 5592 5593 5593 5594 5594 5595 5596 5597 5597 5598 5598 5599 5599 5600 5600 5600 5601 5602 5602 5602 5603 5603 5604 5604 5605 5605 5606 5607 5608 5608 5609 5610 5611 5612 5612 5613 5614 5615 5615 5616 5617 5618 5619 5620 5620 5621 5622
5589 5588 5588 5588 5588 5587 5587 5586 5586 5585 5585 5584 5583 5582 5583 5583 5583 5582 5581 5582 5583 5584 5583 5582 5581 5581 5582 5582 5582 5582 5582 5583 5583 5584 5584 5584 5585 5585 5585 5586 5587 5588 5588 5589 5590 5590 5591 5592 5593 5593 5594 5594 5595 5595 5596 5596 5597 5598 5598 5598 5599 5600 5600 5601 5602 5602 5603 5603 5604 5605 5606 5607 5608 5609 5609 5610 5611 5612 5613 5613 5614 5615 5616 5617 5618 5618
5582 5582 5581 5581 5581 5580 5580 5579 5578 5578 5578 5577 5576 5575 5575 5575 5575 5575 5574 5575 5576 5577 5577 5576 5575 5575 5575 5575 5575 5575 5576 5576 5577 5577 5578 5578 5579 5579 5579 5580 5580 5581 5583 5583 5584 5585 5586 5587 5588 5588 5589 5589 5590 5591 5591 5592 5592 5593 5593 5594 5595 5595 5596 5597 5598 5598 5599 5600 5601 5602 5603 5603 5604 5605 5606 5607 5608 5608 5609 5610 5611 5612 5613 5614 5614 5615
5575 5575 5574 5574 5573 5573 5573 5572 5571 5571 5570 5569 5569 5568 5568 5568 5568 5568 5567 5567 5568 5570 5570 5570 5569 5569 5569 5569 5568 5568 5568 5569 5569 5570 5571 5572 5572 5573 5573 5573 5574 5575 5576 5577 5578 5578 5580 5581 5582 5582 5583 5584 5585 5585 5586 5587 5587 5588 5589 5589 5590 5591 5592 5593 5593 5594 5595 5595 5596 5598 5598 5599 5600 5601 5602 5603 5604 5605 5606 5607 5608 5608 5609 5610 5611 5612
5568 5567 5567 5566 5566 5566 5565 5564 5563 5563 5562 5562 5561 5561 5560 5559 5559 5559 5559 5559 5560 5561 5562 5562 5562 5563 5564 5563 5562 5561 5561 5561 5562 5563 5564 5564 5565 5566 5566 5567 5567 5568 5570 5571 5571 5572 5574 5575 5576 5576 5578 5579 5579 5580 5581 5582 5582 5583 5584 5584 5585 5586 5587 5588 5589 5589 5590 5591 5592 5593 5594 5595 5596 5598 5598 5599 5600 5601 5602 5603 5604 5605 5606 5607 5608 5608
5559 5559 5558 5558 5558 5558 5557 5557 5555 5554 5554 5553 5553 5552 5551 5551 5550 5550 5550 5551 5551 5552 5553 5553 5554 5555 5557 5558 5557 5555 5553 5553 5554 5555 5556 5557 5558 5558 5559 5560 5560 5561 5563 5564 5565 5566 5568 5569 5569 5570 5571 5573 5573 5574 5575 5576 5577 5578 5578 5579 5580 5581 5582 5583 5584 5585 5586 5587 5588 5589 5590 5591 5592 5593 5594 5595 5596 5597 5598 5599 5600 5601 5602 5603 5604 5605
5551 5550 5550 5550 5549 5549 5549 5548 5547 5546 5545 5544 5543 5543 5542 5542 5541 5541 5541 5542 5542 5543 5543 5544 5546 5547 5548 5550 5551 5549 5547 5546 5546 5546 5548 5549 5550 5551 5552 5553 5553 5554 5556 5558 5559 5559 5561 5562 5563 5564 5565 5566 5568 5568 5569 5570 5571 5572 5573 5574 5575 5576 5577 5578 5579 5580 5581 5582 5583 5584 5585 5587 5588 5589 5590 5591 5593 5593 5594 5595 5596 5598 5598 5600 5601 5601
5542 5542 5542 5541 5540 5540 5540 5539 5538 5537 5536 5535 5534 5533 5533 5533 5532 5532 5532 5532 5532 5533 5533 5534 5536 5537 5538 5541 5543 5543 5541 5539 5537 5536 5537 5540 5542 5543 5544 5545 5545 5546 5548 5550 5552 5553 5554 5555 5556 5557 5559 5560 5561 5562 5563 5564 5565 5566 5568 5568 5569 5571 5571 5573 5574 5575 5576 5577 5578 5579 5581 5582 5583 5584 5586 5587 5588 5589 5590 5592 5593 5594 5595 5596 5597 5598
5533 5533 5532 5532 5531 5531 5530 5530 5529 5528 5527 5525 5524 5523 5523 5523 5523 5523 5523 5523 5522 5523 5523 5524 5525 5526 5528 5531 5533 5535 5534 5533 5530 5527 5527 5529 5533 5534 5535 5537 5538 5539 5540 5543 5544 5546 5547 5548 5549 5550 5552 5553 5554 5556 5557 5558 5559 5560 5562 5563 5564 5566 5566 5567 5568 5569 5571 5572 5573 5574 5576 5577 5578 5580 5581 5583 5584 5585 5586 5587 5588 5590 5591 5592 5593 5594
5524 5524 5523 5522 5521 5521 5520 5520 5520 5519 5518 5515 5513 5513 5513 5513 5512 5512 5513 5512 5512 5512 5513 5513 5514 5516 5518 5520 5523 5524 5525 5525 5523 5520 5518 5519 5522 5525 5526 5528 5530 5531 5532 5534 5537 5538 5539 5540 5542 5543 5545 5546 5548 5549 5550 5552 5553 5554 5556 5557 5559 5560 5562 5562 5563 5564 5566 5567 5568 5569 5571 5572 5573 5575 5577 5578 5579 5581 5582 5583 5584 5586 5587 5588 5589 5590
5514 5514 5513 5512 5512 5511 5510 5509 5509 5508 5507 5505 5503 5502 5502 5501 5501 5501 5501 5500 5501 5501 5501 5501 5503 5505 5507 5509 5511 5512 5513 5514 5515 5513 5510 5509 5510 5513 5516 5518 5521 5523 5523 5526 5528 5530 5532 5532 5533 5535 5537 5539 5540 5542 5543 5545 5547 5548 5550 5551 5553 5554 5555 5556 5557 5559 5560 5561 5563 5564 5566 5567 5569 5570 5572 5573 5575 5576 5578 5579 5580 5581 5582 5583 5585 5586
5504 5504 5503 5502 5501 5501 5500 5499 5498 5497 5495 5493 5492 5491 5489 5489 5489 5489 5489 5488 5488 5489 5489 5489 5491 5493 5495 5497 5498 5499 5500 5502 5505 5505 5503 5501 5500 5502 5504 5508 5511 5513 5513 5516 5519 5521 5523 5523 5525 5527 5529 5531 5533 5534 5536 5538 5540 5542 5543 5545 5546 5548 5549 5550 5552 5553 5554 5556 5558 5559 5561 5562 5564 5565 5567 5568 5570 5572 5573 5574 5576 5577 5578 5579 5581 5582
5492 5492 5491 5490 5489 5488 5488 5486 5485 5484 5482 5481 5480 5479 5477 5476 5476 5476 5475 5474 5475 5476 5477 5477 5478 5480 5482 5483 5485 5486 5487 5488 5490 5492 5493 5491 5491 5492 5494 5496 5499 5502 5502 5505 5509 5512 5513 5514 5516 5518 5521 5523 5525 5527 5528 5530 5532 5534 5537 5538 5540 5542 5543 5544 5546 5547 5548 5550 5552 5554 5555 5557 5558 5560 5562 5563 5565 5567 5568 5570 5571 5573 5574 5575 5577 5578
5479 5479 5479 5478 5476 5475 5474 5473 5472 5470 5468 5467 5466 5465 5463 5462 5462 5461 5461 5460 5461 5462 5463 5463 5464 5466 5468 5470 5472 5473 5475 5474 5474 5476 5478 5479 5480 5482 5484 5485 5486 5488 5490 5494 5498 5502 5503 5504 5506 5508 5512 5514 5516 5518 5520 5523 5525 5527 5529 5531 5533 5535 5536 5538 5539 5541 5543 5544 5546 5548 5550 5552 5553 5555 5557 5559 5560 5562 5564 5565 5567 5568 5570 5571 5572 5574
5466 5466 5465 5465 5463 5462 5461 5459 5458 5456 5454 5453 5451 5450 5449 5448 5447 5446 5446 5446 5447 5448 5448 5448 5449 5451 5453 5455 5457 5460 5462 5460 5460 5460 5463 5464 5466 5468 5472 5474 5475 5476 5478 5482 5485 5489 5492 5493 5495 5498 5501 5504 5507 5509 5512 5514 5517 5519 5521 5523 5526 5528 5529 5531 5533 5535 5537 5539 5541 5543 5545 5546 5548 5550 5552 5554 5556 5557 5559 5561 5562 5564 5565 5567 5568 5569
5455 5453 5453 5452 5450 5448 5447 5445 5444 5442 5440 5438 5437 5435 5433 5432 5431 5430 5430 5431 5432 5433 5433 5433 5434 5435 5437 5440 5443 5446 5448 5446 5446 5446 5448 5449 5450 5453 5458 5461 5463 5465 5468 5470 5473 5476 5480 5482 5484 5487 5490 5494 5497 5499 5503 5505 5508 5511 5513 5516 5518 5520 5523 5525 5527 5529 5531 5533 5535 5537 5539 5541 5543 5545 5547 5549 5551 5553 5554 5556 5558 5559 5561 5563 5564 5566
5443 5442 5440 5439 5437 5435 5434 5432 5430 5429 5427 5425 5423 5421 5418 5416 5415 5415 5415 5415 5416 5417 5418 5419 5419 5419 5421 5424 5428 5431 5433 5433 5433 5433 5433 5433 5436 5439 5442 5446 5450 5454 5458 5459 5461 5463 5467 5470 5472 5475 5479 5483 5486 5489 5493 5496 5499 5502 5505 5508 5511 5513 5515 5518 5520 5522 5524 5527 5529 5532 5534 5535 5538 5539 5542 5544 5546 5548 5549 5551 5553 5555 5557 5558 5560 5562
5432 5430 5429 5427 5425 5423 5421 5419 5418 5416 5414 5412 5410 5408 5405 5402 5401 5401 5402 5401 5401 5401 5403 5404 5404 5404 5406 5409 5413 5416 5418 5420 5422 5421 5419 5419 5422 5425 5428 5430 5435 5441 5446 5448 5449 5451 5454 5458 5461 5463 5467 5472 5475 5479 5483 5486 5489 5492 5496 5499 5502 5505 5508 5511 5513 5516 5518 5520 5523 5526 5528 5530 5532 5534 5537 5538 5541 5543 5545 5547 5548 5550 5552 5554 5556 5557
5421 5419 5417 5415 5413 5411 5409 5407 5405 5403 5401 5400 5398 5396 5393 5389 5388 5388 5390 5389 5388 5388 5388 5389 5389 5390 5392 5395 5398 5400 5403 5407 5409 5410 5408 5407 5409 5412 5414 5418 5423 5428 5433 5436 5438 5439 5442 5446 5449 5452 5456 5461 5465 5468 5472 5476 5479 5483 5486 5490 5493 5497 5501 5504 5507 5509 5511 5514 5517 5519 5522 5524 5527 5529 5531 5533 5536 5538 5540 5542 5544 5546 5548 5549 5551 5553
5411 5409 5407 5405 5402 5399 5397 5396 5394 5392 5389 5388 5386 5384 5381 5378 5376 5376 5377 5377 5376 5376 5376 5377 5377 5378 5379 5382 5384 5386 5389 5393 5396 5398 5398 5398 5398 5399 5401 5406 5412 5417 5420 5423 5426 5428 5431 5434 5438 5442 5447 5451 5454 5458 5462 5466 5469 5473 5477 5481 5485 5488 5493 5496 5499 5502 5505 5508 5510 5513 5516 5519 5521 5523 5526 5528 5530 5533 5535 5537 5539 5541 5543 5545 5547 5548
5401 5399 5397 5395 5392 5389 5387 5385 5383 5381 5378 5377 5375 5373 5371 5368 5366 5365 5364 5365 5365 5365 5365 5366 5366 5367 5367 5369 5372 5374 5376 5380 5384 5387 5389 5389 5388 5387 5390 5396 5401 5405 5407 5411 5415 5418 5420 5423 5428 5433 5439 5442 5445 5448 5452 5456 5460 5464 5468 5472 5476 5480 5484 5488 5492 5496 5498 5501 5504 5507 5510 5513 5516 5518 5521 5523 5525 5528 5530 5532 5534 5537 5538 5540 5542 5544
5391 5389 5388 5385 5382 5380 5377 5375 5373 5371 5369 5367 5365 5363 5360 5358 5356 5354 5353 5353 5353 5354 5354 5355 5356 5356 5357 5358 5360 5362 5365 5369 5373 5376 5379 5380 5378 5378 5380 5386 5390 5393 5396 5401 5405 5408 5410 5413 5418 5424 5430 5433 5436 5438 5442 5447 5451 5455 5459 5463 5468 5472 5476 5480 5485 5489 5491 5494 5498 5501 5505 5508 5511 5513 5515 5517 5520 5523 5525 5527 5529 5532 5534 5536 5538 5540
5381 5379 5378 5375 5373 5370 5368 5365 5363 5361 5359 5357 5355 5353 5351 5349 5347 5345 5343 5342 5342 5343 5343 5344 5345 5346 5346 5347 5348 5351 5354 5358 5362 5365 5368 5369 5369 5369 5371 5376 5380 5383 5387 5391 5395 5398 5401 5404 5408 5414 5421 5425 5427 5429 5433 5437 5442 5446 5451 5455 5460 5464 5468 5473 5478 5481 5484 5488 5492 5496 5499 5503 5506 5508 5510 5512 5515 5517 5520 5522 5525 5527 5529 5532 5533 5536
5371 5369 5368 5366 5363 5361 5359 5356 5354 5352 5350 5348 5346 5344 5342 5341 5339 5337 5335 5333 5333 5332 5333 5333 5334 5335 5336 5337 5338 5340 5343 5347 5351 5353 5356 5359 5360 5360 5363 5367 5371 5374 5378 5381 5385 5388 5392 5395 5399 5404 5411 5415 5418 5420 5424 5428 5433 5437 5442 5448 5452 5457 5461 5465 5470 5473 5477 5481 5485 5490 5494 5498 5501 5503 5505 5507 5510 5512 5515 5517 5520 5523 5525 5527 5529 5531
5362 5361 5358 5357 5354 5352 5350 5348 5346 5344 5342 5340 5338 5336 5334 5333 5331 5329 5328 5326 5325 5323 5323 5323 5324 5325 5327 5328 5329 5330 5333 5337 5340 5343 5345 5348 5350 5352 5354 5357 5361 5364 5368 5372 5375 5379 5383 5388 5391 5395 5400 5405 5409 5412 5416 5420 5424 5429 5435 5440 5445 5449 5453 5458 5462 5466 5470 5474 5478 5483 5488 5492 5495 5498 5500 5502 5505 5507 5510 5513 5515 5518 5520 5523 5524 5527
5353 5352 5350 5348 5346 5344 5342 5340 5338 5337 5335 5333 5331 5329 5328 5326 5324 5323 5321 5320 5318 5317 5316 5315 5315 5316 5317 5318 5320 5321 5324 5327 5330 5332 5334 5336 5339 5343 5346 5348 5351 5355 5360 5363 5367 5371 5376 5380 5383 5386 5390 5395 5400 5403 5408 5412 5417 5423 5428 5433 5438 5442 5447 5451 5455 5459 5463 5468 5472 5476 5481 5485 5489 5492 5494 5497 5500 5503 5505 5508 5511 5513 5516 5518 5520 5522
5345 5344 5342 5340 5338 5337 5335 5333 5332 5330 5329 5327 5325 5323 5322 5320 5318 5317 5315 5313 5312 5311 5309 5308 5308 5308 5309 5310 5311 5313 5315 5318 5320 5322 5324 5327 5330 5333 5336 5338 5342 5347 5352 5355 5358 5363 5368 5372 5375 5378 5382 5386 5391 5395 5400 5405 5411 5416 5421 5426 5430 5435 5440 5444 5448 5453 5457 5461 5465 5470 5474 5479 5483 5485 5488 5492 5495 5498 5500 5503 5506 5509 5512 5514 5516 5518
5338 5336 5335 5333 5332 5330 5329 5327 5326 5325 5323 5322 5320 5318 5316 5314 5313 5311 5309 5307 5306 5304 5303 5302 5301 5301 5302 5302 5303 5305 5307 5309 5311 5313 5315 5318 5322 5324 5327 5329 5333 5339 5343 5348 5351 5356 5360 5364 5368 5370 5373 5378 5383 5388 5394 5399 5404 5409 5413 5418 5423 5429 5434 5438 5443 5447 5451 5455 5460 5464 5468 5473 5476 5480 5483 5487 5489 5492 5495 5498 5501 5504 5507 5509 5512 5514
5330 5329 5328 5327 5325 5324 5323 5322 5321 5319 5318 5316 5314 5312 5311 5309 5307 5305 5303 5301 5300 5298 5297 5296 5295 5295 5295 5295 5296 5298 5299 5301 5303 5305 5307 5310 5314 5317 5320 5323 5326 5330 5335 5340 5345 5350 5354 5357 5359 5362 5366 5371 5376 5382 5387 5392 5397 5402 5406 5412 5418 5423 5428 5432 5437 5441 5445 5450 5454 5459 5463 5467 5471 5475 5478 5481 5483 5487 5490 5493 5496 5500 5503 5505 5508 5510
5323 5323 5322 5321 5320 5319 5318 5317 5316 5314 5313 5311 5309 5307 5305 5303 5302 5300 5298 5296 5294 5293 5291 5290 5289 5289 5289 5289 5290 5291 5292 5293 5295 5298 5300 5303 5306 5309 5313 5316 5319 5322 5327 5333 5338 5344 5348 5350 5353 5356 5361 5365 5370 5375 5380 5386 5391 5395 5400 5406 5412 5417 5421 5426 5431 5436 5440 5444 5448 5453 5457 5461 5465 5469 5472 5475 5478 5482 5485 5488 5492 5495 5498 5501 5503 5506
5318 5318 5317 5316 5315 5314 5313 5312 5310 5309 5307 5305 5303 5302 5300 5298 5296 5294 5292 5291 5289 5288 5286 5284 5283 5283 5283 5283 5284 5285 5286 5287 5289 5291 5293 5295 5298 5302 5306 5308 5312 5316 5321 5325 5331 5337 5342 5345 5348 5351 5355 5359 5363 5369 5374 5380 5384 5389 5395 5400 5405 5409 5415 5421 5426 5431 5435 5439 5443 5448 5452 5456 5460 5464 5467 5471 5474 5477 5481 5485 5488 5492 5494 5497 5499 5502
5313 5313 5312 5312 5311 5309 5308 5307 5305 5304 5302 5300 5298 5297 5295 5293 5291 5288 5287 5285 5284 5283 5281 5279 5278 5277 5277 5277 5278 5279 5280 5281 5283 5285 5287 5289 5292 5295 5298 5301 5305 5309 5314 5318 5324 5329 5334 5338 5342 5345 5349 5353 5358 5363 5369 5374 5379 5384 5389 5394 5399 5405 5411 5417 5421 5425 5430 5434 5439 5443 5448 5452 5456 5459 5463 5466 5470 5473 5477 5481 5484 5488 5490 5493 5496 5498
5309 5308 5308 5307 5306 5304 5303 5302 5300 5299 5297 5296 5293 5291 5289 5287 5285 5283 5281 5279 5278 5277 5276 5274 5273 5272 5271 5271 5272 5273 5275 5276 5278 5280 5282 5283 5286 5288 5291 5294 5298 5303 5307 5312 5317 5322 5327 5333 5336 5339 5343 5348 5353 5358 5363 5368 5373 5379 5384 5389 5394 5400 5406 5411 5415 5420 5425 5430 5434 5438 5443 5448 5452 5455 5459 5463 5466 5469 5473 5477 5480 5483 5486 5489 5492 5495
5304 5304 5303 5302 5301 5300 5299 5298 5296 5293 5292 5290 5288 5286 5284 5282 5279 5277 5275 5273 5273 5271 5270 5268 5267 5266 5266 5266 5267 5268 5270 5271 5273 5274 5276 5278 5280 5283 5287 5290 5293 5297 5302 5306 5311 5315 5321 5327 5331 5335 5340 5344 5349 5353 5358 5363 5368 5373 5378 5384 5389 5394 5398 5403 5409 5416 5421 5426 5430 5434 5439 5443 5448 5452 5456 5459 5463 5466 5469 5472 5476 5479 5482 5485 5489 5492
5300 5299 5298 5296 5295 5293 5292 5290 5289 5287 5285 5284 5282 5280 5278 5276 5274 5272 5269 5268 5266 5265 5264 5263 5262 5261 5260 5260 5262 5263 5265 5266 5268 5269 5271 5273 5276 5280 5284 5287 5289 5293 5297 5301 5306 5311 5317 5322 5327 5331 5336 5341 5344 5348 5353 5358 5363 5368 5374 5379 5385 5390 5395 5400 5407 5413 5417 5421 5426 5430 5435 5440 5444 5448 5452 5456 5459 5462 5465 5468 5472 5475 5478 5481 5485 5488
5295 5293 5292 5291 5289 5288 5286 5284 5283 5281 5279 5278 5276 5275 5273 5271 5268 5266 5264 5263 5261 5259 5258 5258 5257 5256 5255 5256 5258 5259 5260 5262 5263 5265 5267 5269 5272 5276 5279 5282 5285 5288 5293 5298 5303 5308 5314 5319 5324 5328 5333 5337 5341 5344 5348 5353 5359 5364 5370 5375 5380 5386 5391 5397 5403 5407 5412 5417 5422 5427 5432 5436 5441 5445 5448 5451 5454 5458 5462 5465 5468 5471 5474 5478 5481 5484
5289 5288 5287 5285 5284 5282 5281 5279 5278 5276 5274 5273 5271 5269 5268 5265 5263 5261 5259 5257 5256 5254 5253 5252 5252 5251 5251 5252 5253 5255 5256 5258 5259 5261 5263 5266 5268 5271 5274 5277 5281 5285 5289 5294 5300 5306 5312 5317 5322 5326 5329 5333 5337 5340 5345 5350 5355 5361 5366 5371 5376 5381 5386 5392 5397 5402 5408 5413 5418 5423 5428 5433 5437 5440 5443 5447 5451 5455 5459 5462 5465 5468 5471 5475 5478 5482
5285 5284 5283 5281 5279 5278 5276 5274 5273 5271 5269 5268 5266 5264 5262 5260 5258 5255 5253 5252 5250 5249 5248 5248 5247 5247 5247 5248 5249 5251 5252 5254 5256 5258 5260 5263 5265 5268 5270 5274 5278 5282 5287 5293 5298 5304 5310 5314 5319 5323 5326 5329 5333 5337 5342 5347 5352 5357 5362 5367 5372 5377 5382 5387 5393 5399 5404 5409 5414 5419 5424 5428 5432 5435 5439 5444 5448 5452 5455 5458 5461 5464 5468 5472 5475 5479
5282 5280 5278 5277 5275 5273 5272 5270 5268 5266 5264 5263 5261 5259 5257 5254 5252 5250 5248 5247 5246 5245 5244 5243 5243 5243 5244 5245 5246 5247 5249 5251 5253 5255 5257 5259 5262 5265 5268 5271 5275 5280 5286 5291 5297 5303 5308 5312 5316 5319 5323 5327 5331 5335 5339 5344 5349 5354 5359 5364 5368 5373 5378 5384 5390 5395 5401 5406 5410 5415 5420 5424 5428 5432 5436 5440 5444 5448 5452 5455 5458 5461 5465 5468 5472 5476
5278 5276 5274 5273 5271 5269 5268 5266 5264 5262 5260 5258 5256 5254 5252 5249 5247 5245 5243 5242 5241 5241 5240 5240 5240 5241 5241 5242 5243 5244 5246 5248 5249 5251 5254 5257 5259 5262 5265 5269 5273 5279 5284 5290 5295 5300 5305 5309 5313 5318 5322 5325 5329 5333 5338 5342 5346 5351 5356 5361 5365 5370 5375 5381 5386 5392 5397 5402 5407 5412 5417 5421 5426 5430 5434 5438 5441 5445 5449 5452 5456 5459 5462 5466 5470 5473
5273 5272 5270 5269 5267 5265 5264 5262 5261 5258 5256 5254 5252 5250 5248 5245 5243 5241 5240 5238 5238 5237 5237 5237 5237 5238 5238 5239 5240 5241 5243 5244 5246 5248 5251 5254 5257 5260 5263 5267 5272 5277 5282 5287 5292 5297 5301 5306 5311 5315 5320 5323 5327 5331 5335 5338 5343 5348 5353 5357 5362 5367 5372 5378 5383 5388 5393 5398 5403 5409 5413 5418 5422 5426 5430 5433 5438 5442 5446 5449 5453 5457 5460 5464 5468 5471